Time,TemperatureF,DewpointF,PressureIn,WindDirection,WindDirectionDegrees,WindSpeedMPH,WindSpeedGustMPH,Humidity,HourlyPrecipIn,Conditions,Clouds,dailyrainin,SolarRadiationWatts/m^2,SoftwareType,DateUTC
2013-04-25 04:02:00,55.0,28.0,30.08,South,171,1.0,4.0,35,-99.99,,,-99.99,0.000000,,2013-04-25 10:02:00,
2013-04-25 04:12:00,55.0,28.0,30.08,SSE,150,1.0,5.0,36,-99.99,,,-99.99,0.000000,,2013-04-25 10:12:00,
2013-04-25 04:22:00,55.0,28.0,30.08,SSE,150,1.0,5.0,36,-99.99,,,-99.99,0.000000,,2013-04-25 10:22:00,
2013-04-25 04:32:00,54.0,28.0,30.08,SE,139,3.0,5.0,36,-99.99,,,-99.99,0.000000,,2013-04-25 10:32:00,
2013-04-25 04:42:00,54.0,28.0,30.08,SSE,163,3.0,6.0,37,-99.99,,,-99.99,0.000000,,2013-04-25 10:42:00,
2013-04-25 04:53:00,54.0,28.0,30.08,SSE,163,3.0,6.0,37,-99.99,,,-99.99,0.000000,,2013-04-25 10:53:00,
2013-04-25 05:02:00,53.0,28.0,30.08,South,174,2.0,4.0,37,-99.99,,,-99.99,0.000000,,2013-04-25 11:02:00,
2013-04-25 05:12:00,54.0,28.0,30.09,South,174,1.0,3.0,36,-99.99,,,-99.99,0.000000,,2013-04-25 11:12:00,
2013-04-25 05:22:00,54.0,28.0,30.09,South,174,1.0,3.0,36,-99.99,,,-99.99,0.000000,,2013-04-25 11:22:00,
2013-04-25 05:32:00,54.0,28.0,30.09,South,174,1.0,3.0,36,-99.99,,,-99.99,0.000000,,2013-04-25 11:32:00,
2013-04-25 05:42:00,53.0,28.0,30.09,SE,124,1.0,4.0,36,-99.99,,,-99.99,0.000000,,2013-04-25 11:42:00,
2013-04-25 05:52:00,53.0,28.0,30.09,SE,124,1.0,4.0,36,-99.99,,,-99.99,0.000000,,2013-04-25 11:52:00,
2013-04-25 06:01:00,53.0,28.0,30.09,SE,127,4.0,5.0,37,-99.99,,,-99.99,0.000000,,2013-04-25 12:01:00,
2013-04-25 06:12:00,52.0,28.0,30.09,SE,132,5.0,7.0,37,-99.99,,,-99.99,0.000000,,2013-04-25 12:12:00,
2013-04-25 06:21:00,52.0,28.0,30.09,SE,132,5.0,7.0,37,-99.99,,,-99.99,0.000000,,2013-04-25 12:21:00,
2013-04-25 06:32:00,51.0,27.0,30.09,SSE,150,1.0,5.0,39,-99.99,,,-99.99,0.000000,,2013-04-25 12:32:00,
2013-04-25 06:42:00,51.0,27.0,30.09,South,177,0.0,2.0,39,-99.99,,,-99.99,0.000000,,2013-04-25 12:42:00,
2013-04-25 06:52:00,51.0,27.0,30.09,South,177,0.0,2.0,39,-99.99,,,-99.99,0.000000,,2013-04-25 12:52:00,
2013-04-25 07:02:00,50.0,27.0,30.09,SSE,163,3.0,5.0,40,-99.99,,,-99.99,2.090000,,2013-04-25 13:02:00,
2013-04-25 07:11:00,51.0,27.0,30.09,SSE,149,5.0,7.0,39,-99.99,,,-99.99,21.620001,,2013-04-25 13:11:00,
2013-04-25 07:21:00,51.0,27.0,30.09,SSE,149,5.0,7.0,39,-99.99,,,-99.99,21.620001,,2013-04-25 13:21:00,
2013-04-25 07:32:00,52.0,27.0,30.09,SE,141,5.0,7.0,38,-99.99,,,-99.99,45.330002,,2013-04-25 13:32:00,
2013-04-25 07:42:00,51.0,26.0,30.10,South,191,4.0,8.0,37,-99.99,,,-99.99,73.220001,,2013-04-25 13:42:00,
2013-04-25 07:53:00,51.0,26.0,30.10,South,191,4.0,8.0,37,-99.99,,,-99.99,73.220001,,2013-04-25 13:53:00,
2013-04-25 08:02:00,50.0,26.0,30.11,West,269,2.0,10.0,38,-99.99,,,-99.99,147.139999,,2013-04-25 14:02:00,
2013-04-25 08:11:00,54.0,27.0,30.13,WSW,255,2.0,5.0,35,-99.99,,,-99.99,169.449997,,2013-04-25 14:11:00,
2013-04-25 08:21:00,54.0,27.0,30.13,WSW,255,2.0,5.0,35,-99.99,,,-99.99,169.449997,,2013-04-25 14:21:00,
2013-04-25 08:32:00,56.0,28.0,30.13,SE,124,4.0,8.0,33,-99.99,,,-99.99,226.630005,,2013-04-25 14:32:00,
2013-04-25 08:42:00,57.0,30.0,30.13,SE,134,8.0,12.0,35,-99.99,,,-99.99,152.020004,,2013-04-25 14:42:00,
2013-04-25 08:52:00,57.0,30.0,30.13,SE,134,8.0,12.0,35,-99.99,,,-99.99,152.020004,,2013-04-25 14:52:00,
2013-04-25 09:02:00,57.0,30.0,30.13,SE,134,8.0,12.0,35,-99.99,,,-99.99,152.020004,,2013-04-25 15:02:00,
2013-04-25 09:11:00,59.0,31.0,30.13,SE,124,7.0,11.0,35,-99.99,,,-99.99,238.490005,,2013-04-25 15:11:00,
2013-04-25 09:21:00,59.0,31.0,30.13,SE,124,7.0,11.0,35,-99.99,,,-99.99,238.490005,,2013-04-25 15:21:00,
2013-04-25 09:33:00,59.0,32.0,30.12,ESE,118,8.0,11.0,35,-99.99,,,-99.99,205.710007,,2013-04-25 15:33:00,
2013-04-25 09:42:00,60.0,32.0,30.13,SSE,147,6.0,10.0,34,-99.99,,,-99.99,208.500000,,2013-04-25 15:42:00,
2013-04-25 09:53:00,60.0,32.0,30.13,SSE,147,6.0,10.0,34,-99.99,,,-99.99,208.500000,,2013-04-25 15:53:00,
2013-04-25 10:02:00,60.0,32.0,30.13,SSE,147,6.0,10.0,34,-99.99,,,-99.99,208.500000,,2013-04-25 16:02:00,
2013-04-25 10:13:00,61.0,32.0,30.13,ESE,120,7.0,12.0,32,-99.99,,,-99.99,280.329987,,2013-04-25 16:13:00,
2013-04-25 10:24:00,61.0,32.0,30.13,ESE,120,7.0,12.0,32,-99.99,,,-99.99,280.329987,,2013-04-25 16:24:00,
2013-04-25 10:32:00,62.0,32.0,30.13,SE,124,7.0,11.0,32,-99.99,,,-99.99,369.589996,,2013-04-25 16:32:00,
2013-04-25 10:52:00,63.0,32.0,30.12,ESE,123,6.0,12.0,31,-99.99,,,-99.99,449.779999,,2013-04-25 16:52:00,
2013-04-25 11:02:00,63.0,32.0,30.12,ESE,123,6.0,12.0,31,-99.99,,,-99.99,449.779999,,2013-04-25 17:02:00,
2013-04-25 11:11:00,63.0,32.0,30.12,ESE,123,6.0,12.0,31,-99.99,,,-99.99,449.779999,,2013-04-25 17:11:00,
2013-04-25 11:32:00,65.0,33.0,30.11,SE,142,5.0,10.0,30,-99.99,,,-99.99,392.600006,,2013-04-25 17:32:00,
2013-04-25 11:42:00,65.0,33.0,30.12,South,174,5.0,10.0,30,-99.99,,,-99.99,374.470001,,2013-04-25 17:42:00,
2013-04-25 11:53:00,65.0,33.0,30.12,South,174,5.0,10.0,30,-99.99,,,-99.99,374.470001,,2013-04-25 17:53:00,
2013-04-25 12:01:00,65.0,33.0,30.12,South,174,5.0,10.0,30,-99.99,,,-99.99,374.470001,,2013-04-25 18:01:00,
2013-04-25 12:11:00,67.0,34.0,30.11,SSW,204,6.0,13.0,29,-99.99,,,-99.99,672.229980,,2013-04-25 18:11:00,
2013-04-25 12:22:00,67.0,34.0,30.11,SSW,204,6.0,13.0,29,-99.99,,,-99.99,672.229980,,2013-04-25 18:22:00,
2013-04-25 12:32:00,67.0,34.0,30.11,SSW,204,6.0,13.0,29,-99.99,,,-99.99,672.229980,,2013-04-25 18:32:00,
2013-04-25 12:42:00,68.0,34.0,30.10,SSW,204,7.0,12.0,28,-99.99,,,-99.99,499.989990,,2013-04-25 18:42:00,
2013-04-25 12:53:00,68.0,34.0,30.10,SSW,204,7.0,12.0,28,-99.99,,,-99.99,499.989990,,2013-04-25 18:53:00,
2013-04-25 13:01:00,68.0,34.0,30.10,SSW,204,7.0,12.0,28,-99.99,,,-99.99,499.989990,,2013-04-25 19:01:00,
2013-04-25 13:12:00,70.0,35.0,30.08,South,177,12.0,19.0,28,-99.99,,,-99.99,596.219971,,2013-04-25 19:12:00,
2013-04-25 13:21:00,70.0,35.0,30.08,South,177,12.0,19.0,28,-99.99,,,-99.99,596.219971,,2013-04-25 19:21:00,
2013-04-25 13:31:00,70.0,35.0,30.07,South,171,11.0,18.0,27,-99.99,,,-99.99,506.260010,,2013-04-25 19:31:00,
2013-04-25 13:42:00,71.0,36.0,30.05,South,175,12.0,18.0,27,-99.99,,,-99.99,474.190002,,2013-04-25 19:42:00,
2013-04-25 13:52:00,71.0,36.0,30.05,South,175,12.0,18.0,27,-99.99,,,-99.99,474.190002,,2013-04-25 19:52:00,
2013-04-25 14:02:00,72.0,37.0,30.05,South,177,12.0,20.0,27,-99.99,,,-99.99,617.840027,,2013-04-25 20:02:00,
2013-04-25 14:11:00,72.0,37.0,30.05,South,177,12.0,20.0,27,-99.99,,,-99.99,617.840027,,2013-04-25 20:11:00,
2013-04-25 14:22:00,72.0,37.0,30.05,South,177,12.0,20.0,27,-99.99,,,-99.99,617.840027,,2013-04-25 20:22:00,
2013-04-25 14:32:00,74.0,37.0,30.03,South,184,10.0,20.0,25,-99.99,,,-99.99,926.059998,,2013-04-25 20:32:00,
2013-04-25 14:42:00,76.0,37.0,30.02,SSE,168,13.0,23.0,24,-99.99,,,-99.99,1014.619995,,2013-04-25 20:42:00,
2013-04-25 14:52:00,76.0,37.0,30.02,SSE,168,13.0,23.0,24,-99.99,,,-99.99,1014.619995,,2013-04-25 20:52:00,
2013-04-25 15:01:00,77.0,38.0,30.01,South,179,13.0,25.0,24,-99.99,,,-99.99,981.150024,,2013-04-25 21:01:00,
2013-04-25 15:11:00,78.0,37.0,30.00,South,182,12.0,22.0,23,-99.99,,,-99.99,831.919983,,2013-04-25 21:11:00,
2013-04-25 15:22:00,78.0,37.0,30.00,South,182,12.0,22.0,23,-99.99,,,-99.99,831.919983,,2013-04-25 21:22:00,
2013-04-25 15:33:00,78.0,38.0,29.99,South,174,12.0,21.0,24,-99.99,,,-99.99,623.419983,,2013-04-25 21:33:00,
2013-04-25 15:42:00,79.0,38.0,29.98,South,185,12.0,21.0,23,-99.99,,,-99.99,838.190002,,2013-04-25 21:42:00,
2013-04-25 15:53:00,79.0,38.0,29.98,South,185,12.0,21.0,23,-99.99,,,-99.99,838.190002,,2013-04-25 21:53:00,
2013-04-25 16:02:00,79.0,38.0,29.97,SSE,166,12.0,23.0,22,-99.99,,,-99.99,769.859985,,2013-04-25 22:02:00,
2013-04-25 16:12:00,80.0,36.0,29.95,South,189,12.0,21.0,21,-99.99,,,-99.99,717.559998,,2013-04-25 22:12:00,
2013-04-25 16:22:00,80.0,36.0,29.95,South,189,12.0,21.0,21,-99.99,,,-99.99,717.559998,,2013-04-25 22:22:00,
2013-04-25 16:33:00,80.0,37.0,29.94,South,178,12.0,21.0,21,-99.99,,,-99.99,691.750000,,2013-04-25 22:33:00,
2013-04-25 16:42:00,81.0,36.0,29.93,South,171,12.0,22.0,20,-99.99,,,-99.99,650.609985,,2013-04-25 22:42:00,
2013-04-25 16:53:00,81.0,36.0,29.93,South,171,12.0,22.0,20,-99.99,,,-99.99,650.609985,,2013-04-25 22:53:00,
2013-04-25 17:02:00,82.0,32.0,29.91,South,181,12.0,20.0,16,-99.99,,,-99.99,580.179993,,2013-04-25 23:02:00,
2013-04-25 17:12:00,83.0,30.0,29.91,SSW,195,13.0,24.0,14,-99.99,,,-99.99,557.169983,,2013-04-25 23:12:00,
2013-04-25 17:22:00,83.0,30.0,29.91,SSW,195,13.0,24.0,14,-99.99,,,-99.99,557.169983,,2013-04-25 23:22:00,
2013-04-25 17:32:00,84.0,30.0,29.90,South,191,14.0,23.0,14,-99.99,,,-99.99,493.709991,,2013-04-25 23:32:00,
2013-04-25 17:42:00,84.0,29.0,29.90,SSW,202,16.0,28.0,13,-99.99,,,-99.99,435.829987,,2013-04-25 23:42:00,
2013-04-25 17:52:00,84.0,29.0,29.90,SSW,202,16.0,28.0,13,-99.99,,,-99.99,435.829987,,2013-04-25 23:52:00,
2013-04-25 18:01:00,84.0,28.0,29.89,SSW,198,17.0,29.0,12,-99.99,,,-99.99,379.350006,,2013-04-26 00:01:00,
2013-04-25 18:11:00,84.0,27.0,29.89,SSW,202,16.0,34.0,12,-99.99,,,-99.99,285.910004,,2013-04-26 00:11:00,
2013-04-25 18:21:00,84.0,27.0,29.89,SSW,202,16.0,34.0,12,-99.99,,,-99.99,285.910004,,2013-04-26 00:21:00,
2013-04-25 18:32:00,84.0,28.0,29.89,SSW,199,14.0,25.0,12,-99.99,,,-99.99,144.350006,,2013-04-26 00:32:00,
2013-04-25 18:41:00,84.0,27.0,29.88,SSW,209,16.0,28.0,12,-99.99,,,-99.99,109.480003,,2013-04-26 00:41:00,
2013-04-25 18:52:00,84.0,27.0,29.88,SSW,209,16.0,28.0,12,-99.99,,,-99.99,109.480003,,2013-04-26 00:52:00,
2013-04-25 19:01:00,83.0,27.0,29.88,SSW,211,16.0,24.0,12,-99.99,,,-99.99,92.050003,,2013-04-26 01:01:00,
2013-04-25 19:11:00,83.0,27.0,29.88,SSW,203,15.0,27.0,13,-99.99,,,-99.99,43.930000,,2013-04-26 01:11:00,
2013-04-25 19:21:00,83.0,27.0,29.88,SSW,203,15.0,27.0,13,-99.99,,,-99.99,43.930000,,2013-04-26 01:21:00,
2013-04-25 19:31:00,82.0,27.0,29.88,SSW,203,14.0,22.0,13,-99.99,,,-99.99,55.090000,,2013-04-26 01:31:00,
2013-04-25 19:42:00,82.0,27.0,29.88,SSW,203,14.0,22.0,13,-99.99,,,-99.99,55.090000,,2013-04-26 01:42:00,
2013-04-25 19:52:00,82.0,27.0,29.88,SSW,203,14.0,22.0,13,-99.99,,,-99.99,55.090000,,2013-04-26 01:52:00,
2013-04-25 20:02:00,82.0,28.0,29.88,SSW,199,12.0,19.0,14,-99.99,,,-99.99,25.799999,,2013-04-26 02:02:00,
2013-04-25 20:11:00,81.0,28.0,29.89,SSW,201,11.0,17.0,14,-99.99,,,-99.99,8.370000,,2013-04-26 02:11:00,
2013-04-25 20:21:00,81.0,28.0,29.89,SSW,201,11.0,17.0,14,-99.99,,,-99.99,8.370000,,2013-04-26 02:21:00,
2013-04-25 20:32:00,81.0,19.0,29.88,SW,234,17.0,30.0,9,-99.99,,,-99.99,1.390000,,2013-04-26 02:32:00,
2013-04-25 20:42:00,81.0,13.0,29.89,WSW,241,17.0,30.0,7,-99.99,,,-99.99,0.000000,,2013-04-26 02:42:00,
2013-04-25 20:52:00,81.0,13.0,29.89,WSW,241,17.0,30.0,7,-99.99,,,-99.99,0.000000,,2013-04-26 02:52:00,
2013-04-25 21:01:00,80.0,14.0,29.89,WSW,243,14.0,25.0,7,-99.99,,,-99.99,0.000000,,2013-04-26 03:01:00,
2013-04-25 21:11:00,80.0,13.0,29.90,WSW,247,15.0,28.0,8,-99.99,,,-99.99,0.000000,,2013-04-26 03:11:00,
2013-04-25 21:21:00,80.0,13.0,29.90,WSW,247,15.0,28.0,8,-99.99,,,-99.99,0.000000,,2013-04-26 03:21:00,
2013-04-25 21:33:00,79.0,14.0,29.90,WSW,248,17.0,29.0,8,-99.99,,,-99.99,0.000000,,2013-04-26 03:33:00,
2013-04-25 21:43:00,79.0,13.0,29.91,WSW,243,17.0,26.0,8,-99.99,,,-99.99,0.000000,,2013-04-26 03:43:00,
2013-04-25 21:53:00,79.0,13.0,29.91,WSW,243,17.0,26.0,8,-99.99,,,-99.99,0.000000,,2013-04-26 03:53:00,
2013-04-25 22:02:00,79.0,13.0,29.91,WSW,243,17.0,26.0,8,-99.99,,,-99.99,0.000000,,2013-04-26 04:02:00,
2013-04-25 22:12:00,79.0,13.0,29.92,WSW,244,18.0,29.0,8,-99.99,,,-99.99,0.000000,,2013-04-26 04:12:00,
2013-04-25 22:23:00,79.0,13.0,29.92,WSW,244,18.0,29.0,8,-99.99,,,-99.99,0.000000,,2013-04-26 04:23:00,
2013-04-25 22:32:00,78.0,13.0,29.93,WSW,244,15.0,23.0,8,-99.99,,,-99.99,0.000000,,2013-04-26 04:32:00,
2013-04-25 22:43:00,78.0,14.0,29.94,WSW,246,19.0,30.0,8,-99.99,,,-99.99,0.000000,,2013-04-26 04:43:00,
2013-04-25 22:53:00,78.0,14.0,29.94,WSW,246,19.0,30.0,8,-99.99,,,-99.99,0.000000,,2013-04-26 04:53:00,
2013-04-25 23:02:00,77.0,15.0,29.94,WSW,247,18.0,27.0,9,-99.99,,,-99.99,0.000000,,2013-04-26 05:02:00,
2013-04-25 23:12:00,77.0,15.0,29.94,West,260,18.0,28.0,9,-99.99,,,-99.99,0.000000,,2013-04-26 05:12:00,
2013-04-25 23:22:00,77.0,15.0,29.94,West,260,18.0,28.0,9,-99.99,,,-99.99,0.000000,,2013-04-26 05:22:00,
2013-04-25 23:32:00,76.0,15.0,29.95,West,264,15.0,41.0,9,-99.99,,,-99.99,0.000000,,2013-04-26 05:32:00,
2013-04-25 23:42:00,75.0,14.0,29.95,West,278,12.0,22.0,9,-99.99,,,-99.99,0.000000,,2013-04-26 05:42:00,
2013-04-25 23:52:00,75.0,14.0,29.95,West,278,12.0,22.0,9,-99.99,,,-99.99,0.000000,,2013-04-26 05:52:00,